Location: Wildlife_Club
(35.6000°N, 81.4330°W)
Time: 17:23:24
(UTC-04:00)

Iridium 56 - Visible Passes

Search period start: 22 July 2014 00:00
Search period end: 01 August 2014 00:00
Orbit: 776 x 779 km, 86.4° (Epoch: 22 July)

Date Brightness Start Highest point End Pass type
(mag) Time Alt. Az. Time Alt. Az. Time Alt. Az.
22 Jul 5.6 22:05:50 10° N 22:11:03 82° W 22:15:30 14° S visible
23 Jul 5.7 21:32:26 10° N 21:37:31 51° E 21:42:27 11° SSE visible
23 Jul 8.1 23:14:51 10° NW 23:17:42 15° W 23:20:33 10° WSW visible
24 Jul 6.6 20:59:28 10° NNE 21:03:52 27° E 21:08:13 10° SE visible
24 Jul 7.3 22:40:04 10° NNW 22:44:28 28° W 22:48:52 10° SW visible
25 Jul 6.2 22:06:03 10° NNW 22:11:07 55° W 22:16:10 10° SSW visible
26 Jul 5.5 21:32:26 10° N 21:37:39 77° E 21:42:51 10° S visible
27 Jul 6.1 20:59:11 10° NNE 21:04:04 40° E 21:08:55 10° SSE visible
27 Jul 7.9 22:40:47 10° NW 22:44:25 19° W 22:48:03 10° SW visible
28 Jul 7.0 22:06:24 10° NNW 22:11:08 37° W 22:15:52 10° SSW visible
29 Jul 5.8 21:32:33 10° N 21:37:45 72° W 21:42:54 10° S visible
30 Jul 5.6 20:59:05 10° N 21:04:14 59° E 21:09:21 10° SSE visible
30 Jul 8.3 22:42:02 10° NW 22:44:19 13° W 22:46:36 10° WSW visible
31 Jul 7.7 22:06:56 10° NNW 22:11:07 25° W 22:15:17 10° SW visible
